QPF
0.04 0.04 0.05 0.05 0.04 0.04 0.04 0.03 0.03 0.02 0.02 0.02 0.01 0.01 0.01 0.01 0.01 0.01 0.02 0.02 0.02 0.02 0.01 0.01 0.01 0.00 0.00 0.00 0.00 0.00 0.00 0.00 0.00 0.00 0.00 0.01 0.01 0.01
0.03 0.03 0.03 0.03 0.03 0.02 0.03 0.03 0.03 0.03 0.02 0.01 0.01 0.01 0.01 0.01 0.02 0.01 0.01 0.02 0.02 0.02 0.01 0.01 0.01 0.01 0.00 0.00 0.00 0.00 0.00 0.00 0.00 0.00 0.00 0.01 0.01 0.01
0.03 0.02 0.02 0.02 0.02 0.01 0.02 0.02 0.03 0.03 0.03 0.01 0.01 0.01 0.01 0.02 0.02 0.02 0.01 0.01 0.01 0.01 0.01 0.01 0.01 0.00 0.01 0.01 0.00 0.00 0.00 0.00 0.00 0.00 0.01 0.01 0.01 0.01
0.03 0.02 0.02 0.02 0.02 0.01 0.02 0.02 0.03 0.03 0.02 0.02 0.02 0.01 0.01 0.01 0.01 0.02 0.02 0.01 0.01 0.01 0.01 0.01 0.00 0.00 0.00 0.01 0.01 0.01 0.00 0.00 0.00 0.00 0.01 0.01 0.01 0.01
0.03 0.03 0.02 0.02 0.02 0.02 0.02 0.02 0.03 0.03 0.03 0.02 0.02 0.02 0.01 0.01 0.01 0.02 0.02 0.02 0.01 0.01 0.01 0.01 0.00 0.00 0.00 0.01 0.01 0.01 0.01 0.00 0.00 0.00 0.00 0.01 0.01 0.01
0.02 0.03 0.03 0.03 0.02 0.02 0.02 0.02 0.02 0.02 0.02 0.02 0.02 0.03 0.02 0.02 0.02 0.02 0.02 0.02 0.01 0.01 0.01 0.00 0.00 0.00 0.00 0.00 0.00 0.01 0.01 0.01 0.01 0.01 0.01 0.01 0.01 0.01
0.01 0.01 0.02 0.03 0.03 0.02 0.02 0.02 0.02 0.02 0.03 0.03 0.03 0.03 0.03 0.03 0.03 0.02 0.02 0.02 0.01 0.01 0.01 0.00 0.00 0.00 0.00 0.00 0.00 0.00 0.01 0.01 0.01 0.01 0.01 0.01 0.01 0.01
0.01 0.01 0.01 0.01 0.02 0.02 0.02 0.02 0.03 0.02 0.03 0.03 0.03 0.02 0.02 0.02 0.02 0.02 0.02 0.02 0.02 0.01 0.01 0.00 0.00 0.00 0.00 0.00 0.00 0.00 0.00 0.01 0.01 0.01 0.01 0.01 0.01 0.01
0.01 0.01 0.01 0.01 0.01 0.01 0.02 0.02 0.02 0.03 0.03 0.02 0.02 0.02 0.02 0.02 0.02 0.02 0.02 0.02 0.01 0.01 0.01 0.00 0.00 0.00 0.00 0.00 0.00 0.00 0.00 0.01 0.01 0.01 0.01 0.01 0.01 0.02
0.02 0.01 0.01 0.01 0.01 0.01 0.02 0.02 0.02 0.02 0.02 0.02 0.02 0.02 0.02 0.02 0.02 0.02 0.02 0.02 0.02 0.01 0.01 0.01 0.00 0.00 0.00 0.00 0.00 0.00 0.00 0.00 0.00 0.01 0.01 0.02 0.02 0.02
0.03 0.02 0.01 0.01 0.02 0.02 0.02 0.02 0.02 0.02 0.01 0.01 0.02 0.02 0.02 0.02 0.02 0.02 0.02 0.02 0.02 0.01 0.01 0.01 0.00 0.00 0.00 0.00 0.00 0.00 0.00 0.00 0.00 0.01 0.01 0.01 0.01 0.01
0.04 0.03 0.03 0.02 0.02 0.02 0.02 0.02 0.02 0.01 0.01 0.01 0.01 0.01 0.01 0.02 0.02 0.02 0.02 0.02 0.02 0.01 0.01 0.01 0.01 0.00 0.00 0.00 0.00 0.00 0.00 0.00 0.00 0.00 0.00 0.01 0.01 0.01
0.04 0.04 0.03 0.02 0.02 0.02 0.02 0.02 0.02 0.02 0.01 0.01 0.01 0.01 0.01 0.01 0.02 0.02 0.02 0.02 0.02 0.01 0.01 0.01 0.01 0.01 0.01 0.00 0.00 0.00 0.00 0.00 0.00 0.00 0.00 0.00 0.01 0.01
0.04 0.04 0.03 0.03 0.02 0.02 0.02 0.02 0.02 0.02 0.01 0.01 0.01 0.01 0.01 0.01 0.02 0.02 0.02 0.02 0.02 0.02 0.01 0.01 0.01 0.01 0.01 0.01 0.00 0.00 0.00 0.00 0.00 0.00 0.00 0.00 0.00 0.01
0.05 0.05 0.04 0.03 0.03 0.02 0.02 0.02 0.02 0.01 0.01 0.01 0.01 0.02 0.02 0.02 0.03 0.03 0.03 0.03 0.02 0.02 0.01 0.01 0.01 0.01 0.01 0.01 0.01 0.00 0.00 0.00 0.00 0.00 0.00 0.01 0.01 0.01
0.05 0.05 0.04 0.03 0.03 0.03 0.03 0.02 0.02 0.01 0.01 0.01 0.02 0.02 0.02 0.03 0.03 0.02 0.02 0.02 0.02 0.02 0.01 0.01 0.01 0.01 0.02 0.01 0.01 0.01 0.00 0.00 0.00 0.00 0.00 0.01 0.01 0.01
0.03 0.03 0.03 0.03 0.03 0.02 0.02 0.02 0.02 0.01 0.01 0.01 0.02 0.02 0.03 0.03 0.02 0.02 0.02 0.02 0.02 0.01 0.01 0.01 0.01 0.01 0.01 0.01 0.01 0.01 0.00 0.00 0.00 0.00 0.01 0.01 0.01 0.01
0.03 0.03 0.03 0.03 0.03 0.02 0.02 0.02 0.02 0.02 0.01 0.02 0.02 0.03 0.03 0.02 0.02 0.02 0.02 0.02 0.02 0.01 0.01 0.01 0.01 0.01 0.01 0.01 0.00 0.00 0.00 0.00 0.00 0.00 0.01 0.01 0.01 0.01
0.02 0.02 0.02 0.02 0.02 0.02 0.02 0.02 0.02 0.02 0.02 0.03 0.03 0.03 0.03 0.02 0.02 0.02 0.02 0.02 0.02 0.01 0.01 0.01 0.01 0.01 0.01 0.01 0.00 0.00 0.00 0.00 0.00 0.00 0.01 0.01 0.01 0.01
0.01 0.01 0.01 0.01 0.02 0.02 0.02 0.03 0.03 0.03 0.03 0.03 0.03 0.03 0.03 0.02 0.02 0.02 0.02 0.02 0.01 0.01 0.01 0.01 0.01 0.01 0.02 0.01 0.01 0.00 0.00 0.01 0.01 0.01 0.01 0.01 0.01 0.01
0.01 0.01 0.01 0.01 0.02 0.02 0.02 0.02 0.02 0.03 0.03 0.03 0.03 0.03 0.03 0.03 0.02 0.02 0.02 0.02 0.01 0.01 0.01 0.00 0.00 0.01 0.02 0.02 0.02 0.01 0.00 0.01 0.01 0.02 0.02 0.02 0.01 0.01
0.01 0.01 0.01 0.01 0.02 0.02 0.02 0.02 0.02 0.03 0.03 0.03 0.02 0.02 0.02 0.02 0.02 0.02 0.02 0.02 0.01 0.01 0.01 0.01 0.01 0.01 0.01 0.02 0.01 0.00 0.00 0.00 0.01 0.01 0.01 0.02 0.02 0.02
0.01 0.01 0.02 0.02 0.02 0.02 0.02 0.02 0.03 0.02 0.02 0.02 0.02 0.02 0.02 0.02 0.02 0.02 0.02 0.02 0.02 0.01 0.01 0.01 0.01 0.01 0.01 0.01 0.01 0.01 0.00 0.01 0.01 0.01 0.01 0.01 0.01 0.01
MSLP
1016.43 1017.00 1017.58 1018.15 1018.68 1019.14 1019.54 1019.89 1020.19 1020.48 1020.76 1021.06 1021.37 1021.69 1022.00 1022.27 1022.50 1022.68 1022.80 1022.89 1022.94 1023.01 1023.08 1023.19 1023.34 1023.51 1023.68 1023.85 1024.00 1024.11 1024.17 1024.19 1024.19 1024.16 1024.13 1024.09 1024.06 1024.02
1016.55 1017.05 1017.57 1018.08 1018.55 1018.97 1019.34 1019.68 1019.99 1020.31 1020.63 1020.97 1021.32 1021.66 1021.99 1022.28 1022.52 1022.69 1022.80 1022.87 1022.91 1022.95 1023.01 1023.10 1023.22 1023.37 1023.53 1023.68 1023.81 1023.89 1023.95 1023.96 1023.94 1023.92 1023.88 1023.84 1023.80 1023.75
1016.81 1017.26 1017.71 1018.15 1018.57 1018.94 1019.28 1019.59 1019.90 1020.22 1020.56 1020.92 1021.29 1021.65 1021.99 1022.29 1022.52 1022.68 1022.78 1022.84 1022.87 1022.90 1022.94 1023.02 1023.12 1023.25 1023.39 1023.53 1023.64 1023.71 1023.75 1023.76 1023.75 1023.72 1023.69 1023.66 1023.62 1023.56
1017.14 1017.54 1017.94 1018.33 1018.68 1019.00 1019.30 1019.59 1019.88 1020.20 1020.53 1020.90 1021.27 1021.64 1021.98 1022.28 1022.50 1022.67 1022.77 1022.82 1022.85 1022.87 1022.92 1022.98 1023.08 1023.20 1023.32 1023.44 1023.53 1023.60 1023.63 1023.63 1023.62 1023.60 1023.57 1023.54 1023.50 1023.44
1017.47 1017.83 1018.18 1018.51 1018.82 1019.09 1019.36 1019.62 1019.89 1020.19 1020.53 1020.89 1021.26 1021.62 1021.96 1022.25 1022.48 1022.64 1022.75 1022.81 1022.85 1022.89 1022.94 1023.01 1023.11 1023.22 1023.33 1023.43 1023.50 1023.55 1023.57 1023.56 1023.54 1023.52 1023.49 1023.45 1023.41 1023.35
1017.71 1018.05 1018.37 1018.66 1018.93 1019.17 1019.41 1019.65 1019.91 1020.20 1020.52 1020.87 1021.23 1021.59 1021.92 1022.21 1022.44 1022.61 1022.74 1022.82 1022.89 1022.95 1023.02 1023.11 1023.21 1023.31 1023.41 1023.49 1023.54 1023.56 1023.55 1023.53 1023.49 1023.44 1023.40 1023.35 1023.30 1023.22
1017.84 1018.16 1018.46 1018.73 1018.98 1019.21 1019.43 1019.66 1019.91 1020.20 1020.51 1020.85 1021.21 1021.56 1021.88 1022.17 1022.41 1022.60 1022.74 1022.86 1022.96 1023.05 1023.14 1023.25 1023.35 1023.45 1023.53 1023.58 1023.60 1023.59 1023.54 1023.48 1023.41 1023.33 1023.26 1023.19 1023.11 1023.01
1017.85 1018.16 1018.45 1018.72 1018.97 1019.20 1019.43 1019.66 1019.92 1020.21 1020.52 1020.86 1021.20 1021.54 1021.86 1022.15 1022.39 1022.60 1022.77 1022.91 1023.04 1023.16 1023.28 1023.40 1023.51 1023.60 1023.66 1023.68 1023.66 1023.60 1023.51 1023.40 1023.28 1023.16 1023.04 1022.94 1022.83 1022.71
1017.79 1018.10 1018.40 1018.67 1018.93 1019.18 1019.43 1019.68 1019.95 1020.25 1020.57 1020.90 1021.24 1021.57 1021.88 1022.16 1022.41 1022.62 1022.81 1022.97 1023.13 1023.28 1023.41 1023.54 1023.65 1023.73 1023.76 1023.75 1023.68 1023.58 1023.43 1023.27 1023.09 1022.93 1022.77 1022.62 1022.48 1022.33
1017.70 1018.02 1018.33 1018.63 1018.92 1019.20 1019.47 1019.75 1020.04 1020.35 1020.67 1020.99 1021.32 1021.64 1021.94 1022.21 1022.46 1022.67 1022.87 1023.05 1023.21 1023.37 1023.52 1023.65 1023.74 1023.81 1023.81 1023.77 1023.66 1023.51 1023.32 1023.11 1022.89 1022.67 1022.47 1022.28 1022.10 1021.93
1017.65 1017.99 1018.33 1018.65 1018.97 1019.28 1019.58 1019.88 1020.19 1020.50 1020.82 1021.14 1021.46 1021.76 1022.04 1022.30 1022.53 1022.75 1022.94 1023.12 1023.29 1023.45 1023.59 1023.71 1023.80 1023.84 1023.82 1023.75 1023.62 1023.43 1023.20 1022.95 1022.69 1022.43 1022.19 1021.97 1021.76 1021.57
1017.67 1018.04 1018.40 1018.76 1019.11 1019.44 1019.77 1020.08 1020.40 1020.71 1021.03 1021.33 1021.63 1021.91 1022.18 1022.42 1022.64 1022.84 1023.02 1023.19 1023.35 1023.50 1023.63 1023.74 1023.81 1023.83 1023.80 1023.71 1023.56 1023.35 1023.10 1022.82 1022.53 1022.25 1021.97 1021.72 1021.49 1021.27
1017.77 1018.17 1018.57 1018.95 1019.32 1019.67 1020.01 1020.33 1020.64 1020.95 1021.25 1021.53 1021.81 1022.08 1022.32 1022.55 1022.75 1022.94 1023.11 1023.27 1023.41 1023.54 1023.66 1023.74 1023.80 1023.81 1023.76 1023.65 1023.49 1023.28 1023.01 1022.73 1022.42 1022.11 1021.82 1021.54 1021.28 1021.03
1017.95 1018.38 1018.80 1019.20 1019.58 1019.93 1020.27 1020.58 1020.88 1021.17 1021.45 1021.73 1021.99 1022.24 1022.47 1022.69 1022.88 1023.05 1023.21 1023.35 1023.48 1023.59 1023.68 1023.74 1023.77 1023.76 1023.70 1023.59 1023.42 1023.20 1022.93 1022.64 1022.32 1022.00 1021.68 1021.37 1021.08 1020.80
1018.16 1018.62 1019.05 1019.46 1019.84 1020.19 1020.51 1020.81 1021.09 1021.36 1021.62 1021.89 1022.14 1022.39 1022.62 1022.83 1023.02 1023.19 1023.34 1023.46 1023.57 1023.65 1023.70 1023.74 1023.74 1023.70 1023.62 1023.49 1023.32 1023.09 1022.82 1022.51 1022.18 1021.84 1021.49 1021.15 1020.82 1020.51
1018.38 1018.85 1019.29 1019.70 1020.07 1020.40 1020.70 1020.98 1021.24 1021.50 1021.76 1022.02 1022.28 1022.53 1022.78 1023.00 1023.19 1023.36 1023.50 1023.60 1023.67 1023.72 1023.74 1023.73 1023.69 1023.61 1023.50 1023.35 1023.15 1022.90 1022.62 1022.29 1021.94 1021.57 1021.19 1020.81 1020.44 1020.09
1018.57 1019.04 1019.47 1019.87 1020.23 1020.54 1020.83 1021.09 1021.35 1021.61 1021.87 1022.14 1022.42 1022.69 1022.95 1023.19 1023.40 1023.56 1023.68 1023.76 1023.80 1023.80 1023.76 1023.69 1023.60 1023.47 1023.31 1023.12 1022.89 1022.61 1022.29 1021.94 1021.56 1021.15 1020.73 1020.31 1019.90 1019.50
1018.72 1019.17 1019.60 1019.98 1020.32 1020.62 1020.90 1021.16 1021.42 1021.69 1021.97 1022.27 1022.57 1022.87 1023.16 1023.41 1023.62 1023.78 1023.88 1023.93 1023.91 1023.85 1023.75 1023.61 1023.45 1023.26 1023.04 1022.79 1022.51 1022.19 1021.84 1021.45 1021.03 1020.59 1020.13 1019.66 1019.21 1018.77
1018.82 1019.26 1019.66 1020.03 1020.36 1020.65 1020.93 1021.21 1021.48 1021.78 1022.09 1022.41 1022.75 1023.08 1023.38 1023.64 1023.85 1023.99 1024.06 1024.05 1023.98 1023.85 1023.68 1023.47 1023.22 1022.96 1022.67 1022.37 1022.04 1021.68 1021.28 1020.86 1020.40 1019.93 1019.43 1018.94 1018.45 1017.99
1018.90 1019.31 1019.69 1020.04 1020.37 1020.67 1020.96 1021.25 1021.55 1021.87 1022.21 1022.57 1022.92 1023.26 1023.57 1023.83 1024.02 1024.13 1024.15 1024.09 1023.96 1023.76 1023.50 1023.22 1022.90 1022.57 1022.23 1021.87 1021.49 1021.09 1020.67 1020.22 1019.75 1019.25 1018.74 1018.23 1017.73 1017.25
1018.96 1019.34 1019.71 1020.05 1020.37 1020.67 1020.98 1021.29 1021.61 1021.96 1022.32 1022.68 1023.05 1023.38 1023.68 1023.91 1024.06 1024.13 1024.10 1023.98 1023.78 1023.51 1023.20 1022.85 1022.47 1022.09 1021.70 1021.31 1020.91 1020.50 1020.06 1019.61 1019.13 1018.64 1018.14 1017.63 1017.14 1016.67
1019.02 1019.37 1019.72 1020.05 1020.36 1020.67 1020.99 1021.31 1021.65 1022.00 1022.36 1022.72 1023.06 1023.37 1023.63 1023.82 1023.92 1023.93 1023.84 1023.67 1023.41 1023.09 1022.73 1022.34 1021.94 1021.54 1021.13 1020.73 1020.33 1019.93 1019.51 1019.08 1018.63 1018.16 1017.69 1017.21 1016.74 1016.30
1019.06 1019.39 1019.71 1020.03 1020.34 1020.65 1020.96 1021.28 1021.61 1021.95 1022.28 1022.61 1022.91 1023.16 1023.36 1023.49 1023.53 1023.48 1023.34 1023.12 1022.83 1022.49 1022.11 1021.71 1021.31 1020.91 1020.53 1020.15 1019.78 1019.41 1019.03 1018.65 1018.24 1017.83 1017.40 1016.97 1016.55 1016.15
Thickness
5542 5544 5545 5545 5546 5548 5549 5550 5549 5547 5547 5547 5547 5549 5548 5547 5545 5543 5541 5539 5537 5535 5532 5530 5527 5525 5522 5519 5517 5515 5512 5510 5508 5506 5504 5501 5499 5498
5532 5533 5534 5535 5536 5537 5539 5540 5540 5540 5539 5538 5537 5538 5537 5536 5535 5533 5531 5528 5527 5524 5521 5519 5516 5513 5510 5507 5505 5503 5500 5497 5495 5493 5491 5489 5486 5485
5521 5523 5523 5524 5525 5526 5528 5528 5529 5529 5528 5527 5525 5525 5525 5524 5523 5522 5520 5518 5515 5513 5510 5507 5503 5500 5498 5495 5492 5489 5487 5484 5481 5479 5477 5475 5473 5471
5512 5512 5513 5514 5514 5516 5516 5517 5518 5518 5517 5516 5513 5513 5513 5512 5511 5510 5508 5506 5503 5500 5498 5494 5491 5488 5485 5482 5479 5476 5474 5470 5468 5465 5463 5461 5459 5457
5503 5503 5504 5504 5504 5505 5505 5505 5506 5507 5505 5504 5503 5501 5500 5499 5498 5497 5495 5493 5490 5488 5485 5482 5479 5475 5473 5470 5466 5463 5460 5457 5455 5452 5450 5447 5445 5443
5493 5495 5495 5495 5495 5495 5495 5495 5494 5494 5493 5492 5491 5489 5487 5486 5485 5484 5482 5479 5477 5475 5472 5469 5466 5462 5460 5457 5453 5450 5446 5443 5441 5439 5436 5434 5431 5429
5484 5485 5486 5486 5487 5486 5486 5485 5484 5483 5481 5480 5478 5476 5474 5472 5472 5471 5469 5466 5464 5461 5458 5456 5453 5450 5446 5444 5440 5437 5433 5431 5428 5425 5423 5420 5418 5415
5476 5476 5476 5476 5477 5478 5478 5478 5476 5474 5472 5469 5467 5466 5464 5462 5460 5458 5454 5451 5450 5448 5444 5442 5438 5436 5433 5431 5427 5424 5420 5417 5414 5411 5408 5406 5404 5402
5467 5467 5467 5468 5467 5467 5468 5467 5466 5465 5463 5461 5458 5457 5454 5452 5449 5445 5441 5438 5437 5434 5429 5428 5424 5422 5420 5417 5414 5410 5406 5403 5400 5397 5395 5392 5390 5388
5458 5458 5458 5458 5457 5457 5456 5455 5454 5453 5452 5451 5449 5448 5445 5442 5438 5434 5430 5425 5421 5418 5415 5412 5410 5407 5406 5403 5399 5396 5392 5389 5386 5383 5381 5379 5376 5375
5449 5450 5449 5448 5448 5447 5446 5444 5443 5441 5440 5439 5437 5435 5432 5429 5425 5419 5414 5410 5408 5404 5399 5396 5395 5392 5391 5389 5385 5381 5377 5374 5371 5369 5367 5364 5363 5361
5440 5440 5440 5440 5439 5437 5435 5433 5431 5430 5428 5426 5424 5421 5418 5415 5412 5408 5403 5398 5394 5390 5386 5381 5378 5374 5375 5375 5371 5366 5363 5360 5357 5355 5352 5350 5349 5348
5430 5430 5430 5430 5429 5427 5425 5423 5422 5419 5416 5413 5410 5407 5404 5401 5398 5394 5391 5386 5380 5376 5372 5367 5363 5358 5355 5357 5356 5353 5349 5346 5344 5341 5339 5337 5336 5335
5421 5420 5419 5418 5417 5415 5414 5412 5410 5407 5403 5399 5396 5393 5390 5387 5384 5380 5376 5372 5368 5364 5359 5354 5349 5344 5340 5340 5341 5340 5336 5333 5331 5329 5327 5326 5325 5324
5410 5410 5408 5407 5406 5404 5402 5400 5397 5393 5389 5386 5384 5381 5378 5374 5370 5365 5361 5356 5352 5349 5345 5341 5337 5332 5328 5326 5326 5325 5323 5323 5320 5318 5317 5315 5314 5313
5397 5397 5397 5395 5393 5391 5389 5387 5384 5381 5377 5374 5372 5368 5364 5360 5355 5351 5346 5341 5338 5334 5331 5328 5325 5321 5317 5315 5313 5312 5310 5309 5309 5307 5306 5305 5304 5302
5385 5384 5383 5381 5379 5377 5375 5373 5371 5368 5365 5361 5358 5355 5351 5347 5342 5337 5333 5328 5324 5322 5319 5316 5313 5310 5308 5305 5303 5302 5300 5298 5297 5296 5295 5295 5295 5293
5374 5372 5370 5369 5367 5365 5363 5361 5358 5355 5352 5349 5346 5342 5339 5334 5330 5325 5321 5317 5313 5311 5307 5305 5301 5299 5297 5296 5295 5293 5290 5288 5287 5286 5284 5283 5285 5285
5361 5360 5358 5357 5355 5353 5351 5348 5346 5343 5341 5338 5334 5330 5326 5322 5318 5314 5310 5306 5303 5300 5296 5293 5290 5287 5285 5286 5287 5284 5280 5279 5278 5276 5275 5273 5273 5276
5348 5347 5346 5344 5343 5341 5339 5337 5335 5332 5329 5326 5322 5318 5315 5311 5307 5303 5300 5296 5293 5289 5286 5283 5280 5278 5276 5275 5275 5274 5271 5269 5267 5266 5265 5265 5265 5266
5336 5335 5334 5332 5331 5330 5328 5326 5323 5320 5317 5314 5311 5307 5304 5300 5297 5294 5291 5288 5285 5281 5278 5275 5273 5271 5268 5265 5264 5265 5263 5261 5259 5257 5257 5256 5256 5257
5324 5323 5322 5321 5319 5318 5317 5315 5312 5309 5307 5303 5301 5297 5294 5291 5288 5285 5282 5279 5276 5273 5270 5268 5265 5262 5259 5256 5255 5255 5254 5253 5252 5251 5250 5249 5247 5248
5312 5311 5311 5309 5308 5307 5305 5304 5301 5299 5297 5294 5291 5288 5285 5282 5280 5277 5275 5272 5269 5266 5262 5260 5257 5254 5251 5249 5247 5246 5245 5245 5245 5245 5245 5244 5243 5243